When you browse on this site, cookies collect data to enhance your experience and personalize the content and advertising you see.
Visit our Privacy Policy to learn more. By continuing to use the site, you agree to this use of cookies and data.
  • In Lithuania
  • List of Countries
  • For 7 days
  • Water Temperature
  • Satellite Maps
  • Weather Map
  • Weather Widgets
  • user-avatar
    Login

    Hourly Weather Neuquén

    Today, 19 May, Sunday

    Time Temperature Precipitation Wind Pressure Humidity
    00:00 +10°C° 0 mm 5 mps 737 mmHg 47%
    01:00 +10°C° 0 mm 6 mps 737 mmHg 50%
    02:00 +9°C° 0 mm 5 mps 737 mmHg 51%
    03:00 +9°C° 0 mm 5 mps 737 mmHg 52%
    04:00 +10°C° 0 mm 4 mps 736 mmHg 52%
    05:00 +8°C° 0 mm 4 mps 736 mmHg 53%
    06:00 +9°C° 0 mm 3 mps 736 mmHg 54%
    07:00 +9°C° 0 mm 2 mps 736 mmHg 54%
    08:00 +12°C° 0 mm 2 mps 736 mmHg 47%
    09:00 +13°C° 0 mm 2 mps 737 mmHg 41%
    10:00 +15°C° 0 mm 2 mps 737 mmHg 34%
    11:00 +15°C° 0 mm 2 mps 736 mmHg 31%
    12:00 +16°C° 0 mm 2 mps 736 mmHg 29%
    13:00 +16°C° 0 mm 2 mps 735 mmHg 27%
    14:00 +16°C° 0 mm 2 mps 735 mmHg 28%
    15:00 +16°C° 0 mm 1 mps 735 mmHg 29%
    16:00 +16°C° 0 mm 1 mps 735 mmHg 30%
    17:00 +15°C° 0 mm 1 mps 735 mmHg 32%
    18:00 +15°C° 0 mm 1 mps 736 mmHg 33%
    19:00 +14°C° 0 mm 1 mps 736 mmHg 35%
    20:00 +14°C° 0 mm 1 mps 736 mmHg 36%
    21:00 +13°C° 0 mm 1 mps 737 mmHg 38%
    22:00 +13°C° 0 mm 1 mps 737 mmHg 39%
    23:00 +13°C° 0 mm 2 mps 737 mmHg 44%

    Tomorrow, 20 May, Monday

    Time Temperature Precipitation Wind Pressure Humidity
    00:00 +11°C° 0 mm 3 mps 738 mmHg 49%
    01:00 +11°C° 0 mm 4 mps 738 mmHg 54%
    02:00 +11°C° 0.1 mm 4 mps 738 mmHg 58%
    03:00 +10°C° 0.1 mm 4 mps 739 mmHg 63%
    04:00 +9°C° 0.1 mm 5 mps 739 mmHg 67%
    05:00 +9°C° 0.1 mm 5 mps 740 mmHg 68%
    06:00 +9°C° 0.1 mm 6 mps 741 mmHg 69%
    07:00 +9°C° 0.1 mm 6 mps 741 mmHg 70%
    08:00 +9°C° 0.1 mm 6 mps 742 mmHg 69%
    09:00 +10°C° 0.1 mm 6 mps 743 mmHg 68%
    10:00 +10°C° 0.1 mm 5 mps 743 mmHg 66%
    11:00 +12°C° 0 mm 5 mps 743 mmHg 61%
    12:00 +13°C° 0 mm 5 mps 743 mmHg 55%
    13:00 +14°C° 0 mm 5 mps 743 mmHg 50%
    14:00 +14°C° 0 mm 5 mps 743 mmHg 49%
    15:00 +14°C° 0 mm 4 mps 743 mmHg 48%
    16:00 +13°C° 0 mm 4 mps 743 mmHg 47%
    17:00 +13°C° 0 mm 4 mps 743 mmHg 47%
    18:00 +13°C° 0 mm 3 mps 744 mmHg 48%
    19:00 +12°C° 0 mm 3 mps 744 mmHg 48%
    20:00 +12°C° 0 mm 3 mps 744 mmHg 49%
    21:00 +11°C° 0 mm 3 mps 744 mmHg 50%
    22:00 +12°C° 0 mm 2 mps 745 mmHg 52%
    23:00 +10°C° 0 mm 2 mps 745 mmHg 53%

    Day after tomorrow, 21 May, Tuesday

    Time Temperature Precipitation Wind Pressure Humidity
    00:00 +10°C° 0 mm 2 mps 744 mmHg 55%
    01:00 +10°C° 0 mm 1 mps 744 mmHg 57%
    02:00 +10°C° 0 mm 1 mps 744 mmHg 59%
    03:00 +9°C° 0 mm 1 mps 744 mmHg 60%
    04:00 +9°C° 0 mm 1 mps 744 mmHg 62%
    05:00 +9°C° 0 mm 1 mps 744 mmHg 64%
    06:00 +9°C° 0 mm 1 mps 744 mmHg 65%
    07:00 +9°C° 0 mm 1 mps 744 mmHg 67%
    08:00 +9°C° 0 mm 2 mps 744 mmHg 63%
    09:00 +11°C° 0 mm 3 mps 744 mmHg 59%
    10:00 +12°C° 0 mm 3 mps 744 mmHg 55%
    11:00 +13°C° 0 mm 4 mps 743 mmHg 52%
    12:00 +14°C° 0 mm 4 mps 743 mmHg 49%
    13:00 +15°C° 0 mm 4 mps 742 mmHg 46%
    14:00 +15°C° 0 mm 4 mps 741 mmHg 46%
    15:00 +14°C° 0 mm 4 mps 741 mmHg 46%
    16:00 +14°C° 0 mm 3 mps 740 mmHg 47%
    17:00 +13°C° 0 mm 3 mps 740 mmHg 49%
    18:00 +13°C° 0 mm 3 mps 740 mmHg 52%
    19:00 +13°C° 0 mm 2 mps 740 mmHg 55%
    20:00 +12°C° 0 mm 3 mps 740 mmHg 57%
    21:00 +11°C° 0 mm 3 mps 740 mmHg 59%
    22:00 +11°C° 0 mm 4 mps 740 mmHg 61%
    23:00 +10°C° 0 mm 3 mps 740 mmHg 63%

    22 May, Wednesday

    Time Temperature Precipitation Wind Pressure Humidity
    00:00 +10°C° 0 mm 3 mps 739 mmHg 66%
    01:00 +9°C° 0 mm 3 mps 739 mmHg 69%
    02:00 +9°C° 0 mm 3 mps 738 mmHg 69%
    03:00 +9°C° 0 mm 2 mps 738 mmHg 69%
    04:00 +8°C° 0 mm 2 mps 737 mmHg 70%
    05:00 +8°C° 0 mm 2 mps 737 mmHg 68%
    06:00 +9°C° 0 mm 1 mps 737 mmHg 67%
    07:00 +9°C° 0 mm 1 mps 737 mmHg 66%
    08:00 +10°C° 0 mm 2 mps 737 mmHg 57%
    09:00 +13°C° 0 mm 2 mps 738 mmHg 48%
    10:00 +15°C° 0 mm 2 mps 738 mmHg 40%
    11:00 +16°C° 0 mm 3 mps 737 mmHg 35%
    12:00 +17°C° 0 mm 3 mps 736 mmHg 31%
    13:00 +18°C° 0 mm 4 mps 736 mmHg 27%
    14:00 +18°C° 0 mm 3 mps 736 mmHg 27%
    15:00 +17°C° 0 mm 3 mps 735 mmHg 28%
    16:00 +17°C° 0 mm 2 mps 735 mmHg 28%
    17:00 +16°C° 0 mm 2 mps 735 mmHg 30%
    18:00 +15°C° 0 mm 2 mps 735 mmHg 32%
    19:00 +14°C° 0 mm 2 mps 735 mmHg 34%
    20:00 +14°C° 0 mm 2 mps 735 mmHg 33%
    21:00 +13°C° 0 mm 2 mps 735 mmHg 33%
    22:00 +13°C° 0 mm 2 mps 735 mmHg 32%
    23:00 +13°C° 0 mm 2 mps 735 mmHg 32%

    23 May, Thursday

    Time Temperature Precipitation Wind Pressure Humidity
    00:00 +12°C° 0 mm 3 mps 734 mmHg 31%
    01:00 +12°C° 0 mm 3 mps 734 mmHg 31%
    02:00 +12°C° 0 mm 3 mps 734 mmHg 30%
    03:00 +11°C° 0 mm 3 mps 734 mmHg 29%
    04:00 +12°C° 0 mm 2 mps 733 mmHg 29%
    05:00 +12°C° 0 mm 2 mps 734 mmHg 28%
    06:00 +12°C° 0 mm 2 mps 734 mmHg 28%
    07:00 +12°C° 0 mm 2 mps 734 mmHg 27%
    08:00 +14°C° 0 mm 2 mps 734 mmHg 24%
    09:00 +16°C° 0 mm 3 mps 734 mmHg 22%
    10:00 +18°C° 0 mm 3 mps 735 mmHg 19%
    11:00 +19°C° 0 mm 3 mps 734 mmHg 18%
    12:00 +20°C° 0 mm 3 mps 733 mmHg 17%
    13:00 +21°C° 0 mm 3 mps 733 mmHg 16%
    14:00 +21°C° 0 mm 3 mps 733 mmHg 18%
    15:00 +20°C° 0 mm 2 mps 732 mmHg 19%
    16:00 +19°C° 0 mm 2 mps 732 mmHg 20%
    17:00 +18°C° 0 mm 2 mps 732 mmHg 21%
    18:00 +17°C° 0 mm 2 mps 732 mmHg 22%
    19:00 +16°C° 0 mm 1 mps 732 mmHg 23%
    20:00 +16°C° 0 mm 1 mps 731 mmHg 22%
    21:00 +15°C° 0 mm 2 mps 731 mmHg 21%
    22:00 +15°C° 0 mm 2 mps 731 mmHg 20%
    23:00 +15°C° 0 mm 2 mps 731 mmHg 20%

    24 May, Friday

    Time Temperature Precipitation Wind Pressure Humidity
    00:00 +14°C° 0 mm 2 mps 730 mmHg 20%
    01:00 +14°C° 0 mm 1 mps 730 mmHg 20%
    02:00 +14°C° 0 mm 2 mps 729 mmHg 20%
    03:00 +14°C° 0 mm 2 mps 729 mmHg 19%
    04:00 +14°C° 0 mm 2 mps 729 mmHg 19%
    05:00 +14°C° 0 mm 2 mps 729 mmHg 20%
    06:00 +14°C° 0 mm 2 mps 729 mmHg 20%
    07:00 +14°C° 0 mm 2 mps 729 mmHg 20%
    08:00 +15°C° 0 mm 2 mps 729 mmHg 19%
    09:00 +17°C° 0 mm 3 mps 729 mmHg 18%
    10:00 +18°C° 0 mm 3 mps 729 mmHg 17%
    11:00 +19°C° 0 mm 3 mps 728 mmHg 16%
    12:00 +20°C° 0 mm 3 mps 728 mmHg 15%
    13:00 +20°C° 0 mm 3 mps 727 mmHg 14%
    14:00 +19°C° 0 mm 2 mps 727 mmHg 15%
    15:00 +19°C° 0 mm 1 mps 727 mmHg 16%
    16:00 +18°C° 0 mm 1 mps 727 mmHg 18%
    17:00 +18°C° 0 mm 1 mps 727 mmHg 18%
    18:00 +16°C° 0 mm 1 mps 727 mmHg 18%
    19:00 +15°C° 0 mm 1 mps 728 mmHg 19%
    20:00 +15°C° 0 mm 1 mps 728 mmHg 19%
    21:00 +15°C° 0 mm 2 mps 728 mmHg 19%
    22:00 +14°C° 0 mm 3 mps 728 mmHg 19%
    23:00 +13°C° 0 mm 3 mps 728 mmHg 22%
    Show more